Wind_Speed
21 18 12 9 9 9 10 12 14 19 21 14 9 5 2 2 1 3 11 12 5 3 3 4 1 3 3 1 2 1 1 1 2 2 1 1 0 0 1 1 2 1 2 2 1 2 3 2 2 2 1 1 4 4 1 2 4 4 2 2 2 1 3 3 3 1 2 4 5 3 3 3 5 3 1 2 3 3 5 5 4 4 3 2 4 4 2
20 14 9 8 8 8 9 11 12 16 20 17 10 4 0 1 1 2 9 11 4 3 2 3 3 5 3 4 5 3 2 4 3 3 4 3 1 1 1 1 2 1 1 2 2 1 2 2 1 2 2 2 4 3 2 3 3 2 3 3 1 2 2 3 4 2 2 4 4 4 4 4 5 2 0 1 1 2 4 3 3 4 3 2 5 5 2
16 10 7 7 6 7 8 10 10 13 17 16 8 3 1 0 1 1 6 9 4 0 2 1 4 5 5 5 4 3 3 3 3 2 4 4 2 2 1 1 1 1 0 2 1 1 2 3 1 1 3 1 4 2 2 4 2 2 3 1 1 2 3 2 4 4 2 2 2 1 1 2 3 2 2 2 3 3 3 4 4 4 1 0 6 6 4
12 7 6 6 4 6 7 9 9 10 14 13 6 3 2 1 1 2 2 5 4 3 2 1 2 4 4 4 2 2 3 4 1 1 2 3 2 1 1 1 1 1 1 3 3 2 2 3 3 3 3 1 2 3 2 4 1 4 4 2 2 2 3 2 5 5 4 5 5 4 3 4 4 3 3 3 4 4 4 5 5 4 3 4 5 3 5
10 7 6 4 3 4 6 8 9 9 11 12 5 2 2 1 0 1 1 2 3 4 2 1 2 2 1 1 2 2 3 4 2 0 1 2 1 1 1 1 1 1 2 3 3 2 3 4 4 4 4 3 0 2 3 3 4 7 5 3 2 4 3 1 3 5 5 7 6 4 4 5 5 4 3 3 4 4 4 7 4 4 5 6 3 3 4
9 7 5 3 2 3 5 8 8 8 9 10 5 1 1 1 0 1 2 0 2 3 2 2 3 2 0 0 1 3 3 3 2 1 1 1 1 2 1 0 1 2 2 3 3 3 3 4 4 4 4 4 2 2 2 3 6 7 5 3 2 5 4 1 3 6 6 7 7 6 6 6 6 6 5 5 5 6 7 8 5 2 6 7 6 6 8
10 7 4 3 2 2 4 7 8 7 7 7 4 1 1 1 2 2 2 1 3 4 3 1 2 2 1 1 2 3 3 3 2 1 1 2 1 2 1 1 2 2 1 3 3 2 4 4 3 4 4 4 4 4 2 2 5 6 5 2 2 4 3 1 5 8 6 6 7 6 7 8 7 9 7 5 6 7 7 6 4 2 6 9 8 10 12
10 7 3 3 2 1 3 6 7 7 5 4 2 2 1 0 1 1 1 2 4 4 3 2 2 2 1 2 2 2 3 3 2 1 2 1 2 1 2 1 2 2 1 2 3 2 3 4 3 5 5 5 4 4 3 1 3 4 4 2 2 3 2 1 4 8 6 5 6 6 6 8 8 9 5 3 4 4 4 3 2 2 5 7 6 9 11
9 7 4 3 3 2 2 5 6 5 2 1 1 1 2 2 2 2 2 3 2 2 3 2 3 2 3 2 3 4 3 2 2 2 1 3 1 1 2 0 1 1 2 2 2 3 3 4 5 5 6 6 5 3 3 4 3 3 3 3 3 3 3 2 4 7 5 2 5 6 7 9 9 8 5 4 4 2 3 3 5 5 3 2 3 7 7
7 8 7 5 4 3 1 4 6 4 1 2 2 1 1 0 1 2 3 1 2 2 3 3 3 1 1 1 3 3 2 2 1 2 1 0 2 2 2 2 2 3 3 1 2 3 5 6 7 7 7 8 8 6 7 8 6 5 4 3 4 4 5 4 4 6 5 2 4 7 9 9 6 4 4 5 5 3 2 3 6 8 6 3 3 5 4
7 9 10 7 5 4 2 3 5 4 2 1 1 1 1 1 1 1 2 2 2 2 2 3 2 1 2 3 3 3 3 3 2 2 1 3 1 2 2 3 4 3 1 2 3 4 7 8 8 8 9 10 10 10 10 10 9 7 6 5 5 5 6 5 4 5 7 5 5 8 9 6 2 1 1 2 4 4 4 5 7 10 10 7 8 7 5
7 9 10 8 6 5 3 3 4 4 2 3 1 1 1 1 1 1 3 2 3 2 2 1 1 2 3 4 4 4 3 3 0 2 1 1 2 0 1 2 4 2 4 4 5 6 8 9 9 9 10 11 11 11 11 12 11 9 7 7 7 6 6 5 3 5 7 6 6 7 6 4 3 1 0 1 3 4 5 8 9 9 12 13 12 11 10
7 9 10 8 6 5 4 3 5 4 3 4 3 1 2 1 2 1 2 2 2 3 2 2 3 3 4 4 4 4 3 1 1 1 2 1 1 2 1 1 3 4 6 6 6 6 7 7 7 8 8 8 9 9 10 10 10 8 7 8 8 7 6 5 4 5 6 5 4 4 5 6 3 1 3 1 2 4 5 9 8 6 9 12 11 11 10
7 9 9 7 5 5 4 4 6 6 4 5 4 2 3 1 2 1 1 2 2 2 1 2 4 6 6 5 5 4 3 3 3 2 2 2 2 2 1 1 3 5 5 5 4 5 6 5 5 6 5 5 6 5 5 4 3 4 5 7 8 8 7 6 5 5 5 6 6 5 7 7 2 3 3 2 2 1 3 6 5 2 4 7 8 9 9
7 8 8 6 5 6 5 4 7 7 6 6 5 3 3 2 1 2 2 2 1 3 3 2 3 7 8 6 5 5 4 4 4 3 3 2 2 2 2 1 4 3 3 4 4 4 4 4 5 5 4 4 3 2 2 2 3 2 3 5 7 8 7 6 5 4 4 6 6 5 7 6 1 3 3 2 2 2 3 7 5 0 1 3 5 7 8
6 7 7 7 7 6 6 4 6 8 8 6 4 2 2 3 2 1 2 2 1 2 2 1 2 4 6 4 3 4 4 3 3 3 4 4 4 4 2 1 2 2 3 4 4 4 4 4 5 5 4 4 3 3 3 3 2 3 1 2 5 6 6 6 6 5 5 6 6 5 5 3 3 4 2 2 1 2 4 6 2 3 2 1 3 5 5
5 6 7 7 7 6 6 5 5 8 9 7 4 2 1 2 3 0 2 2 2 0 2 3 3 4 4 3 3 3 3 2 2 3 2 2 2 3 2 2 2 3 4 5 4 4 5 5 4 5 4 2 2 4 4 4 4 2 3 4 5 4 4 5 7 6 6 6 6 5 5 3 3 4 3 2 1 2 5 5 1 3 2 1 1 3 2
7 7 7 8 7 6 5 5 4 6 10 9 5 3 1 1 3 1 2 2 2 1 3 4 2 1 1 1 1 2 0 1 1 2 2 1 1 1 2 2 2 3 3 4 4 4 5 5 5 6 4 1 1 4 3 2 4 3 2 3 3 4 3 4 6 7 6 6 6 6 5 3 5 6 3 2 2 3 4 4 3 3 3 1 0 2 1
8 9 9 10 9 6 5 4 3 4 8 10 6 3 2 2 3 2 2 2 2 1 4 4 1 1 2 1 1 2 1 1 2 2 2 2 1 0 1 1 2 2 2 3 4 4 5 5 4 4 5 3 2 3 4 3 4 4 4 5 4 4 3 4 5 5 4 4 4 6 4 2 3 4 0 3 4 3 3 4 4 4 3 1 1 1 2
7 7 8 9 9 8 6 4 2 2 7 10 7 4 3 2 3 3 2 1 2 1 3 5 3 2 2 2 2 1 2 2 2 3 3 1 2 1 4 3 2 2 3 3 4 3 4 5 3 3 5 4 1 1 4 6 5 4 5 6 4 3 4 4 4 3 3 3 5 5 3 1 2 3 3 4 3 3 5 5 4 4 4 2 2 1 2
8 7 8 9 9 8 7 5 3 2 5 10 8 4 4 2 2 3 2 2 2 2 3 4 4 4 3 3 2 2 2 2 1 2 2 0 2 2 3 0 1 1 1 2 3 2 2 4 4 2 4 4 1 1 4 6 5 3 3 5 4 2 3 5 2 2 3 4 4 2 1 2 2 4 2 2 4 5 6 7 6 4 5 4 3 3 3
8 8 9 9 9 8 8 7 5 2 4 8 8 5 5 4 2 2 3 1 3 2 1 2 3 4 5 5 3 3 4 2 2 2 2 1 1 2 3 1 1 1 1 1 3 2 1 3 3 3 4 4 3 4 5 5 5 3 2 3 4 1 2 4 3 2 4 5 4 3 4 3 2 4 5 6 7 6 6 8 8 6 6 5 5 4 3
9 8 8 7 7 8 8 8 7 5 4 6 7 6 5 5 3 2 3 2 3 2 2 2 4 6 8 9 7 6 7 5 4 4 4 4 3 2 3 3 2 1 1 2 3 3 3 3 3 4 5 4 4 5 6 6 6 5 3 4 3 0 1 3 3 2 4 6 7 7 7 6 5 5 6 7 8 8 7 7 8 8 7 7 6 5 4
9 8 7 7 7 7 7 7 9 7 5 5 6 6 5 4 3 3 3 2 2 2 3 4 3 3 3 4 4 5 7 8 8 8 7 6 5 3 2 2 2 2 2 0 2 3 3 3 2 3 5 4 4 6 6 6 6 6 5 6 4 2 2 4 4 3 3 4 5 5 6 6 7 8 8 8 9 8 6 5 6 8 8 8 7 6 5
10 8 6 7 7 6 6 7 8 9 8 7 7 6 5 4 4 4 3 2 1 2 2 3 2 2 2 2 2 3 4 5 7 8 9 10 10 6 2 2 1 2 0 1 1 3 3 3 3 5 6 4 3 5 6 5 5 4 4 7 5 1 1 4 6 6 7 7 7 7 7 8 9 9 7 6 7 7 5 5 6 7 8 9 8 6 5
12 10 9 9 6 5 7 8 8 9 9 7 7 6 4 4 7 6 4 3 2 1 2 2 3 4 2 2 3 3 4 4 5 7 8 10 11 9 5 1 1 1 0 1 3 3 3 4 5 6 6 3 2 5 7 6 5 5 5 7 5 1 2 6 7 7 8 10 10 9 8 8 9 8 6 5 6 7 7 7 8 8 8 8 8 8 7
14 11 10 9 7 7 9 7 6 10 10 6 7 7 4 3 6 6 4 3 3 2 2 2 3 4 2 3 2 3 4 5 6 7 8 9 10 9 8 7 5 4 4 4 3 2 3 5 5 6 6 3 1 5 7 6 7 8 8 8 6 4 7 8 8 8 8 7 7 7 6 7 7 6 6 7 7 7 8 9 9 9 8 8 9 9 9
13 12 10 9 8 10 10 6 6 11 10 6 7 8 4 3 5 5 3 3 3 1 0 0 1 0 3 3 3 4 5 5 6 7 8 10 11 11 10 9 7 5 6 6 5 4 5 6 5 5 5 3 3 6 7 6 7 8 8 8 7 6 8 8 8 9 9 9 9 9 8 8 9 9 10 10 8 8 9 11 11 10 8 7 9 10 10
11 12 11 10 10 10 11 8 7 10 9 7 6 6 4 4 5 6 5 4 3 2 1 1 2 2 2 1 3 4 5 5 5 7 8 9 11 12 12 10 8 6 6 6 6 6 6 6 6 5 3 2 3 5 6 7 8 8 8 9 8 7 8 9 10 11 11 12 12 11 9 9 11 12 12 10 10 10 11 12 11 9 7 7 9 11 11
12 12 11 11 11 11 12 11 9 10 10 8 6 5 4 5 6 8 7 5 4 2 1 2 2 0 1 0 3 4 5 5 5 7 9 10 10 11 11 9 7 6 6 6 6 6 6 5 6 6 5 4 4 6 6 7 9 9 9 10 9 7 8 9 9 10 11 11 12 12 12 11 11 12 12 12 12 12 11 10 9 8 8 8 9 10 12
14 13 12 11 10 11 13 12 10 10 10 8 6 4 2 2 5 9 10 7 4 3 1 2 2 1 1 1 3 3 3 3 5 7 9 9 9 10 10 8 7 7 7 6 6 6 6 6 6 7 7 7 6 6 7 7 9 10 9 8 7 7 8 9 10 11 11 11 12 13 13 12 11 12 11 12 12 11 8 8 8 7 8 9 9 10 12
15 15 14 11 10 12 12 11 12 12 10 6 4 2 1 2 4 9 12 9 5 3 1 1 2 1 1 2 3 2 2 3 4 5 6 7 7 7 8 8 6 6 6 6 6 6 7 6 6 7 7 5 5 6 8 8 11 12 10 9 9 9 10 10 10 11 11 11 11 13 12 12 12 11 11 11 11 10 9 10 10 8 7 8 8 9 11
15 15 15 13 12 12 10 10 13 15 11 6 4 4 3 3 5 11 12 9 4 2 1 1 1 1 0 1 2 3 2 3 4 5 5 5 5 5 5 6 5 5 6 6 5 5 5 5 6 7 7 5 5 6 9 11 13 14 13 12 11 11 11 11 11 11 12 11 11 11 12 12 13 13 13 13 12 11 12 11 9 8 7 8 8 9 10
14 14 15 14 13 11 9 10 14 16 12 6 4 5 5 4 6 11 12 7 3 2 1 2 2 1 1 1 3 3 1 2 3 3 3 4 5 4 4 4 4 4 6 6 5 5 5 5 5 6 6 6 6 7 9 12 14 14 13 13 12 11 11 11 11 11 11 11 11 11 12 13 14 14 14 13 12 12 13 11 8 7 7 7 8 9 9
15 14 14 13 12 11 10 12 14 13 9 6 5 7 7 6 7 11 11 5 2 2 2 2 2 2 2 3 3 3 0 2 2 2 1 3 4 4 3 3 4 4 5 5 5 6 6 5 5 6 6 6 7 8 9 12 14 14 13 13 12 11 11 11 11 11 11 11 11 11 12 13 14 13 13 13 12 12 12 11 9 7 7 8 9 9 9
18 16 14 13 14 13 11 12 12 10 7 7 7 8 8 6 7 9 8 2 1 1 2 2 2 3 2 2 1 2 1 2 1 1 1 2 3 3 3 4 4 3 2 4 5 6 6 5 5 7 7 7 8 9 9 11 14 14 14 13 11 10 11 11 10 12 12 12 13 12 12 13 14 13 12 12 11 11 11 11 9 8 8 9 9 7 8
19 18 17 16 15 11 7 8 10 7 6 9 10 9 7 6 6 5 5 2 1 2 2 2 3 2 2 1 0 1 2 2 2 2 3 2 2 3 3 4 3 1 2 5 6 5 4 4 6 8 8 8 9 10 10 11 13 13 13 13 11 9 9 8 9 12 14 13 13 12 11 11 11 10 9 10 10 10 11 11 9 8 9 9 8 7 8
21 21 19 16 11 5 2 6 9 9 10 12 11 8 4 3 3 2 2 2 1 2 3 4 4 3 2 2 1 2 2 1 1 2 3 2 2 2 3 3 2 1 3 5 3 3 3 4 5 8 9 9 10 12 11 11 11 11 10 9 7 6 7 8 9 12 12 11 11 11 9 9 10 8 7 8 8 8 8 8 7 7 7 7 7 7 8
23 20 16 12 6 2 4 10 13 13 13 11 6 3 2 2 2 2 2 2 2 2 3 5 5 4 4 4 3 2 1 1 2 3 3 2 2 2 3 3 2 2 5 5 1 3 4 5 5 7 8 8 9 10 10 9 8 6 6 6 5 5 7 8 9 10 10 10 11 12 10 10 10 9 8 7 7 7 7 6 6 6 7 8 9 9 9
21 15 9 6 4 5 11 16 17 14 11 6 1 0 2 3 2 2 3 3 3 3 3 4 4 4 4 5 4 3 3 2 3 2 2 2 1 1 2 2 1 2 5 5 2 2 3 5 5 6 7 7 6 6 5 5 5 4 4 6 6 6 7 8 8 9 10 10 11 11 10 9 9 9 8 7 7 7 7 6 6 7 7 8 9 10 11
17 10 6 6 9 13 17 18 14 8 4 3 2 2 2 3 2 2 2 4 4 3 3 3 4 4 5 6 4 3 3 2 1 2 1 2 1 1 3 2 1 2 5 3 1 1 4 5 5 6 7 6 6 5 4 4 4 5 5 6 5 5 7 7 7 8 9 9 8 8 8 9 8 6 6 5 6 6 7 7 7 8 9 10 11 11 12
13 12 12 13 15 16 14 10 5 2 1 2 3 3 3 3 3 2 3 4 3 2 3 5 4 3 4 5 5 3 3 3 1 2 3 2 1 2 3 2 1 3 4 2 0 2 4 5 6 6 6 4 5 5 5 5 5 5 6 5 4 4 5 5 5 7 8 8 7 7 8 8 8 6 6 5 5 7 7 8 9 10 10 11 12 11 11
17 18 17 14 10 7 6 3 1 2 2 2 3 4 4 3 3 3 3 2 2 2 4 5 3 2 3 4 4 2 2 2 3 2 3 2 2 2 3 2 3 3 2 1 2 4 5 5 6 6 5 4 4 4 4 4 4 4 4 4 4 4 5 5 5 6 7 7 7 7 9 9 8 6 6 6 6 7 8 9 11 12 12 11 12 12 11
19 15 10 5 2 2 3 3 2 3 4 4 5 5 5 4 4 4 4 3 3 5 5 5 5 5 5 5 4 3 2 2 3 3 3 2 2 2 3 3 3 2 2 2 4 5 5 6 6 5 5 4 3 2 3 3 3 4 4 5 5 6 6 6 6 7 7 7 7 8 8 9 9 7 6 6 6 8 10 11 13 14 13 12 13 13 12
13 5 3 3 3 3 3 3 3 4 5 6 6 5 5 5 5 6 4 3 3 5 6 6 6 6 5 5 4 3 3 3 3 3 3 3 3 3 3 2 2 2 3 4 5 5 5 5 4 3 4 4 3 2 3 4 4 4 5 6 6 7 7 7 7 7 7 7 8 8 8 9 10 9 9 9 9 10 11 12 13 13 14 14 13 13 11
4 1 2 4 4 3 4 4 3 4 5 6 6 6 5 4 3 3 4 4 3 5 7 7 6 6 6 5 3 2 3 4 3 3 3 3 3 3 2 2 2 3 4 5 5 6 6 5 3 2 3 4 4 4 4 4 4 4 5 6 7 7 7 7 8 8 8 10 11 10 9 9 9 10 11 12 12 11 12 13 13 13 13 14 14 12 9
2 1 2 2 3 4 4 4 3 4 5 5 5 5 4 1 1 2 3 3 4 5 7 6 4 3 4 4 2 2 3 4 4 3 3 3 3 2 2 3 4 4 5 6 7 6 5 4 4 3 3 4 5 5 5 5 5 5 6 7 7 8 8 9 9 10 11 12 12 11 10 10 10 10 11 12 13 13 13 12 12 13 14 14 14 12 10
3 2 2 2 3 4 5 5 4 4 4 3 3 4 3 2 2 3 4 3 3 6 7 6 4 3 3 3 3 3 3 4 4 4 3 2 2 2 2 4 4 5 5 6 6 6 5 4 3 3 3 4 4 4 5 5 6 7 7 8 8 9 9 9 9 10 13 14 13 12 11 12 12 12 11 12 13 14 13 12 10 10 12 14 14 13 12
2 2 1 2 2 3 5 6 6 5 4 3 2 3 4 4 4 5 5 4 4 5 5 3 3 4 4 3 3 4 4 4 4 3 3 3 4 3 3 5 6 6 6 6 5 5 5 4 3 3 3 4 4 5 5 5 6 6 8 9 10 10 10 10 9 11 13 14 13 13 13 13 12 12 11 12 13 14 14 13 11 10 10 11 12 13 13
2 1 2 3 4 5 6 7 8 8 6 5 3 4 5 6 6 6 6 5 4 4 3 2 2 3 4 3 3 4 5 4 3 4 4 5 5 4 4 6 7 7 5 4 4 5 4 3 3 3 3 4 5 6 6 7 7 7 8 11 12 13 12 12 11 12 12 13 14 15 14 13 12 12 11 12 13 15 15 13 11 10 10 9 10 10 11
2 2 2 3 4 5 7 8 8 8 7 6 5 5 5 5 7 7 6 5 5 5 5 5 4 3 4 4 4 3 3 2 3 5 6 5 5 5 6 8 8 6 5 4 4 4 4 3 3 3 4 4 6 7 7 8 8 9 11 13 13 14 13 13 13 13 13 13 14 14 13 12 11 11 12 13 13 13 12 11 9 8 8 7 6 7 8
3 2 2 2 3 5 7 6 5 5 6 5 5 6 5 5 5 6 6 6 6 6 6 5 4 4 4 5 4 3 2 3 4 6 6 5 5 6 7 8 7 5 4 4 3 4 4 4 3 4 4 5 6 7 8 9 10 11 12 14 14 14 14 14 13 13 13 13 13 13 12 12 11 11 11 11 10 9 8 9 8 6 5 3 2 3 4
Wind_Direction
305 309 310 312 324 349 357 345 343 349 355 5 360 335 267 245 81 31 356 355 326 273 105 116 149 91 92 103 104 73 348 39 56 70 48 14 58 192 101 45 339 347 357 313 284 316 315 304 334 350 9 36 54 75 129 245 264 274 310 54 132 220 283 281 279 273 144 130 131 151 169 219 255 257 254 298 314 329 324 328 333 306 292 289 280 290 56
302 302 304 308 324 358 358 341 344 352 359 5 353 313 246 29 79 38 1 1 318 253 100 124 132 105 128 147 119 112 52 38 31 48 45 33 359 338 81 53 358 21 352 290 293 335 299 283 322 324 301 50 76 84 185 226 271 312 360 6 186 228 300 295 285 276 191 180 182 184 189 228 261 274 199 265 334 334 293 279 273 283 300 330 297 297 32
297 294 299 305 326 7 357 336 341 350 357 5 358 315 294 334 173 132 18 18 17 301 36 77 134 127 145 136 116 140 119 59 7 30 54 42 3 340 53 64 27 53 233 252 251 250 285 299 295 269 290 112 108 104 173 217 274 43 55 360 266 282 317 306 298 310 314 288 286 311 298 260 273 275 223 205 167 188 260 280 278 286 35 306 272 282 339
291 288 296 304 333 11 357 332 333 343 354 3 357 302 290 251 181 142 74 46 55 82 40 352 137 136 149 139 125 185 146 111 64 349 57 58 24 354 58 70 227 216 255 254 253 239 244 276 276 273 292 285 115 106 163 221 216 110 131 195 239 293 298 294 301 312 324 323 333 346 320 288 288 289 265 233 181 182 251 274 286 332 346 287 278 285 312
286 293 298 303 338 14 354 327 324 333 350 360 355 283 288 274 240 59 112 99 94 110 107 51 93 120 194 166 139 180 164 140 141 309 29 54 17 301 87 20 272 312 310 279 276 271 242 245 266 279 287 293 152 141 171 196 157 145 162 197 242 282 282 268 283 290 307 316 316 311 281 270 270 264 249 216 167 159 219 253 289 356 310 291 16 41 293
288 299 298 301 345 16 348 323 318 321 340 355 350 257 316 316 107 33 333 257 116 109 97 79 89 108 173 264 159 180 183 174 165 129 115 108 340 286 192 110 17 31 348 300 283 284 271 252 264 284 281 285 280 210 182 154 163 179 192 193 248 284 297 311 270 275 290 300 297 286 272 270 262 246 225 188 172 171 196 236 257 280 267 284 353 342 294
290 296 291 302 342 21 339 318 311 311 333 351 329 277 33 65 121 87 307 305 88 87 76 84 130 124 126 177 180 197 200 183 139 71 197 174 96 325 262 140 60 63 32 299 292 299 295 281 292 311 295 287 290 275 252 157 173 207 217 191 239 284 295 284 274 278 280 285 288 276 267 275 278 271 253 190 181 198 208 244 266 232 259 279 305 306 292
288 293 286 298 332 14 323 310 304 301 327 349 307 312 20 237 102 101 191 122 90 105 120 185 198 155 184 201 166 195 212 178 137 123 271 226 130 280 259 136 82 72 75 300 315 350 318 299 314 319 299 289 296 292 287 239 194 222 238 208 212 262 275 233 275 284 278 270 275 271 274 283 279 277 270 141 151 225 224 244 271 232 261 274 278 283 281
294 305 299 287 315 347 299 296 297 293 315 332 272 3 25 358 3 329 212 130 111 158 146 193 228 188 202 201 155 178 194 152 131 130 3 328 342 319 294 216 150 192 231 279 339 23 341 310 314 308 292 291 297 289 288 291 265 246 248 229 212 233 256 246 267 284 284 261 268 279 292 288 269 263 256 184 173 226 213 196 202 198 198 190 221 263 280
303 318 315 294 299 329 303 278 286 277 257 292 279 128 103 32 359 295 273 156 166 200 152 180 226 187 131 134 148 176 150 117 198 183 131 276 353 357 308 274 251 240 236 278 10 3 325 306 303 297 284 281 280 270 268 275 276 268 254 242 236 247 267 271 270 282 287 280 286 296 299 290 269 257 257 213 188 199 217 215 212 200 182 179 242 279 333
294 314 318 306 293 311 312 262 267 264 215 229 291 124 150 260 261 224 250 196 168 200 185 188 207 129 125 147 167 176 147 154 216 257 166 158 70 1 280 255 269 272 338 27 350 312 292 284 283 279 271 268 266 263 264 263 262 261 255 250 251 250 262 272 273 278 284 291 301 297 291 292 326 40 300 232 204 202 209 230 227 205 200 231 276 292 305
283 305 315 310 291 300 308 247 243 252 191 141 106 93 172 258 290 225 236 214 155 187 213 171 96 123 159 175 186 183 174 170 104 351 342 131 98 328 250 253 262 308 22 347 306 288 273 267 265 259 255 257 257 255 256 255 253 250 246 250 256 251 255 264 262 265 276 293 303 292 288 320 353 7 172 298 264 233 239 262 257 223 214 234 260 274 278
276 298 308 306 295 297 297 239 219 228 191 130 99 50 155 178 278 246 249 249 167 179 202 131 119 149 168 179 192 188 179 164 88 330 277 247 195 205 199 280 293 345 349 317 297 292 282 273 274 269 255 246 249 247 245 249 252 245 236 242 250 250 254 260 258 261 270 278 269 269 305 331 333 178 142 129 240 232 257 273 266 230 223 234 247 265 280
283 297 299 296 302 308 294 236 208 213 197 136 109 106 143 157 297 282 260 265 170 152 188 149 156 180 187 186 197 197 191 198 206 216 218 226 257 238 181 296 323 332 318 290 273 273 281 287 289 286 268 242 241 238 227 224 231 234 236 236 237 242 251 255 250 247 263 274 263 264 297 306 276 162 156 180 241 253 289 293 290 240 227 239 252 274 291
288 294 291 290 301 313 304 247 210 211 202 154 116 92 114 115 336 307 294 284 162 163 211 216 163 181 187 188 204 217 214 210 216 210 178 186 247 242 206 289 322 316 274 269 275 274 286 299 293 289 286 274 272 268 237 200 158 167 254 249 231 232 239 246 249 235 237 273 279 274 285 294 340 106 128 160 298 314 291 289 295 93 148 246 270 292 305
278 285 289 296 299 306 308 272 219 211 206 172 126 96 107 109 99 338 291 266 221 188 185 115 99 168 180 174 200 237 250 238 233 232 203 194 209 212 214 290 302 268 245 252 268 277 273 271 275 279 285 291 300 295 275 253 194 146 152 209 206 218 228 235 248 247 238 259 270 266 274 308 22 44 82 127 286 289 274 280 287 101 94 285 287 306 314
265 282 286 294 296 301 307 288 237 212 204 185 146 137 159 116 115 213 275 242 240 280 116 121 139 171 177 169 179 217 247 242 255 271 250 206 202 216 244 257 210 215 254 261 256 260 260 259 266 271 272 287 297 285 279 271 254 193 162 170 172 183 214 232 241 245 240 247 263 269 274 309 358 345 347 36 84 232 266 285 12 72 42 18 301 321 336
251 262 278 290 291 294 299 287 256 215 202 193 168 148 170 120 126 153 274 241 226 176 124 140 180 190 138 18 139 145 173 246 230 250 254 251 246 253 304 308 213 191 222 256 254 250 258 260 264 273 273 143 193 284 288 274 269 255 226 222 206 200 215 232 243 247 238 237 257 271 273 319 350 339 348 85 150 221 269 312 3 3 351 36 284 322 73
240 249 272 282 277 284 293 269 241 217 203 194 178 165 193 166 140 160 264 249 221 170 122 140 228 319 64 43 92 118 120 271 247 233 242 228 142 341 308 299 247 219 215 244 252 250 258 258 254 272 272 216 190 285 290 264 265 276 265 254 248 243 234 224 233 248 246 237 252 267 272 343 359 336 22 170 215 254 319 338 334 328 334 354 232 254 151
239 248 267 269 260 269 279 244 212 238 211 191 176 169 190 184 161 183 236 269 236 202 139 154 208 230 177 207 244 167 178 222 219 233 252 233 81 277 249 209 191 225 222 232 244 242 255 264 260 261 269 265 259 307 279 263 258 266 273 269 262 262 261 246 222 219 241 238 234 251 272 111 179 209 177 189 240 326 354 327 311 323 324 300 274 261 195
237 246 254 263 266 267 262 231 211 260 208 182 172 171 182 183 176 186 207 285 274 233 134 150 199 224 212 226 276 302 273 259 244 252 265 38 81 273 272 56 94 239 228 238 252 241 247 267 273 266 269 280 290 262 280 285 269 231 258 280 272 242 256 270 257 189 235 248 227 227 12 60 188 220 233 260 292 336 335 312 303 307 299 284 284 279 219
239 249 243 255 271 269 254 233 212 198 170 170 176 183 181 179 185 183 183 240 274 273 74 134 209 238 246 247 259 267 270 292 338 308 285 258 199 252 289 319 301 287 322 286 254 240 236 257 263 267 265 263 261 263 277 288 275 226 188 251 265 269 312 304 289 247 262 280 284 310 342 342 260 251 277 295 300 301 299 296 293 287 281 277 284 284 231
238 234 221 237 266 266 251 232 214 202 166 162 174 188 189 180 162 160 178 212 252 246 218 218 239 250 246 240 239 244 248 249 238 232 249 258 239 228 250 257 265 295 326 295 282 272 262 265 272 277 274 271 274 272 262 256 265 270 254 247 257 290 345 290 280 286 290 278 268 276 290 290 280 268 268 279 289 287 285 289 287 282 279 274 276 281 250
224 210 205 225 245 251 241 218 206 204 186 163 165 176 186 179 160 164 177 189 236 235 205 205 228 251 225 204 208 227 233 232 228 222 228 244 244 233 227 240 279 263 208 172 326 298 268 274 277 267 270 272 272 271 266 260 269 279 275 263 248 177 202 256 266 281 294 270 240 241 261 268 274 278 273 268 273 274 270 271 281 288 283 272 268 272 256
214 201 205 220 227 230 218 207 202 196 189 183 179 178 184 184 184 195 193 171 213 255 225 189 164 89 73 143 187 206 201 200 210 213 213 221 233 253 300 59 18 298 251 108 276 257 246 253 253 253 261 257 243 260 267 270 279 286 277 274 271 147 165 268 269 262 270 278 274 266 262 259 260 265 268 265 268 273 272 266 275 286 280 269 262 258 243
202 196 202 213 219 204 197 206 203 186 181 183 183 186 193 184 184 194 191 169 171 229 267 231 138 112 130 202 192 181 181 183 193 199 205 214 227 244 261 205 170 254 205 213 260 263 257 255 254 259 260 237 216 260 269 277 288 281 265 273 287 273 234 270 281 278 272 275 276 274 273 266 256 249 250 264 278 286 293 294 290 285 277 264 252 242 234
200 192 189 200 203 185 185 195 180 169 174 183 185 188 194 176 181 195 205 200 199 195 218 214 122 118 182 243 223 194 202 206 206 204 207 216 220 227 234 230 226 233 230 234 250 257 253 254 250 253 258 256 266 271 269 274 282 274 264 267 271 260 258 268 273 270 268 274 286 295 295 284 276 273 276 284 289 284 285 296 296 286 274 259 242 231 225
194 180 175 186 187 181 186 184 149 157 173 185 181 185 197 185 185 200 213 222 242 265 237 284 61 356 259 246 205 192 190 190 199 204 207 213 215 218 224 225 228 237 234 234 240 236 237 244 244 245 257 270 268 262 261 266 269 268 266 263 253 252 267 277 276 274 280 291 298 301 297 287 287 291 289 290 294 288 286 296 300 294 281 257 235 224 216
178 174 182 185 177 179 191 186 144 146 170 178 164 175 207 215 208 210 206 207 224 244 293 284 261 273 291 166 162 180 179 175 192 205 209 211 210 213 219 220 222 230 232 234 243 245 243 245 250 256 261 257 262 268 270 267 265 264 266 267 261 258 266 274 280 284 286 289 291 291 290 286 287 291 292 293 295 293 290 293 298 301 294 263 235 224 219
177 177 185 186 178 179 192 192 159 138 152 167 163 170 199 209 208 208 205 203 206 207 249 263 225 222 8 185 194 197 189 186 202 214 218 218 214 211 215 218 220 226 232 233 238 245 250 247 247 254 250 232 250 272 271 268 271 273 274 274 272 268 267 271 278 281 282 287 292 290 288 287 287 288 286 284 284 284 283 286 292 301 297 275 245 226 222
185 183 184 189 184 174 181 193 181 149 145 163 177 187 209 196 184 188 189 185 173 158 166 252 245 280 340 205 205 222 228 220 218 219 220 224 225 220 215 215 216 218 225 235 238 242 252 250 245 252 244 222 227 258 267 269 273 272 274 279 279 277 279 283 284 282 280 282 285 285 284 282 279 277 275 276 279 280 277 282 288 288 282 272 253 232 223
191 187 182 184 178 166 169 186 186 168 158 163 169 152 85 91 149 174 179 175 165 160 186 243 246 245 217 174 177 212 250 236 213 210 210 209 213 212 208 212 219 215 219 239 244 239 245 245 246 259 255 216 208 250 263 260 262 267 278 290 288 282 283 287 288 288 285 281 278 279 281 278 274 274 277 281 285 285 282 286 292 291 282 270 252 233 222
187 184 183 182 176 168 168 178 180 175 169 161 137 125 121 117 145 165 172 170 163 174 215 265 258 217 183 126 146 166 209 220 202 200 194 182 183 193 196 203 217 215 209 222 234 233 238 237 237 253 257 229 221 252 258 252 257 270 283 289 287 286 287 287 287 285 283 281 277 273 274 277 278 281 283 282 283 284 284 284 288 289 283 269 245 225 215
178 180 183 181 175 171 168 166 169 172 172 167 140 132 129 117 141 163 169 163 146 143 181 265 254 218 199 207 163 146 213 244 203 192 182 163 169 193 191 179 195 211 205 209 223 235 240 239 239 248 252 240 237 250 255 257 264 275 282 282 284 289 290 288 290 289 286 285 281 274 272 273 274 276 277 275 275 279 279 275 270 269 270 264 246 227 214
173 171 170 167 164 163 157 157 162 167 168 165 143 134 128 113 133 161 169 164 152 170 174 221 246 249 236 216 168 126 117 267 214 195 184 156 175 212 210 179 193 212 201 202 225 238 236 234 240 248 250 244 239 239 248 262 271 277 281 283 288 295 296 294 296 299 297 292 288 283 278 274 270 269 269 267 267 269 269 263 257 255 258 261 253 233 214
173 168 163 160 158 155 153 161 170 169 165 162 151 144 140 125 130 160 177 186 295 240 194 196 230 242 240 226 138 111 211 240 198 175 189 173 186 211 215 212 221 212 176 201 230 240 237 229 236 249 250 245 242 242 250 268 277 280 283 288 292 296 297 299 302 303 302 299 291 284 277 272 266 263 264 264 263 263 263 260 254 247 247 255 256 239 219
175 172 167 161 157 154 154 174 181 177 165 159 147 135 132 123 121 153 192 219 276 258 251 242 237 239 257 280 35 155 203 206 171 174 195 202 199 190 201 226 232 169 178 231 237 240 240 230 236 252 254 249 252 258 263 272 279 283 286 290 295 296 292 294 304 308 307 301 292 284 279 275 270 263 262 265 265 263 263 261 256 248 247 252 254 243 229
176 176 171 162 157 154 162 178 181 174 159 151 143 130 124 125 121 152 195 198 190 218 236 239 237 235 239 234 191 167 189 208 192 189 190 195 201 185 197 226 227 170 245 254 234 198 224 231 236 253 261 261 265 271 274 274 278 283 286 289 295 295 285 289 306 314 312 303 295 294 297 296 290 282 274 272 272 272 271 268 264 258 255 258 261 249 226
177 176 172 166 162 147 140 156 162 156 145 141 141 131 133 153 169 177 176 188 213 211 214 231 238 227 217 217 203 169 163 227 232 213 190 191 211 206 208 216 190 194 255 263 193 154 228 245 241 253 265 269 267 269 274 276 277 283 286 277 257 246 260 277 298 310 308 300 296 298 300 298 292 290 288 287 285 284 283 281 276 266 259 261 262 249 225
178 171 162 162 154 130 134 144 148 145 138 137 148 139 149 171 200 192 169 184 215 213 204 218 225 212 220 235 226 171 157 219 257 245 199 184 196 246 244 228 180 207 254 256 176 153 253 267 260 259 269 280 282 279 280 283 279 272 272 272 265 262 269 278 294 307 309 305 302 301 298 292 289 288 287 287 289 290 293 295 288 278 270 268 264 251 239
175 164 150 145 138 133 136 141 143 137 129 144 157 149 161 184 195 194 198 207 214 209 192 199 207 197 201 220 224 182 163 193 291 303 243 193 171 225 236 226 191 250 261 261 155 178 252 263 264 265 271 287 301 300 288 281 282 284 287 293 300 300 292 292 304 317 320 318 317 312 303 296 291 285 279 276 277 283 292 297 294 288 281 273 264 254 247
170 156 138 129 129 132 136 140 142 131 133 170 179 177 182 183 178 193 217 221 220 200 179 191 207 193 170 186 203 196 170 174 203 250 229 190 163 227 238 222 208 243 256 271 104 241 250 256 263 269 277 294 305 298 287 287 298 309 316 322 329 320 307 309 323 328 324 321 323 323 317 310 302 292 287 286 283 282 284 283 284 286 283 274 267 260 254
157 146 134 126 127 137 145 157 189 170 161 175 183 177 181 191 198 201 206 211 221 197 170 170 169 123 131 172 190 174 149 180 211 228 217 185 170 216 230 218 223 245 269 295 247 246 252 258 262 270 288 310 317 313 307 310 315 319 324 336 343 334 325 327 329 326 323 321 321 320 318 317 311 296 283 285 293 294 286 271 265 271 277 276 271 264 257
148 139 129 124 136 165 167 169 176 181 188 192 187 183 185 193 198 198 193 186 186 182 173 171 176 170 163 174 182 168 157 187 210 214 207 194 188 202 212 220 231 246 262 255 249 252 256 260 267 280 292 299 313 325 317 314 322 326 326 332 338 336 337 339 335 328 325 326 327 324 318 315 313 306 293 287 288 287 278 266 257 255 258 265 269 265 254
151 140 130 149 161 171 176 167 164 190 203 198 193 196 198 193 194 196 186 164 161 166 164 168 180 179 165 160 175 185 177 174 190 203 200 196 206 216 222 236 254 258 256 256 255 255 255 256 265 286 293 290 300 315 309 313 330 332 324 326 332 336 339 341 337 332 330 330 329 326 319 313 314 315 312 307 297 283 274 269 264 255 249 249 256 259 253
160 153 153 162 170 182 189 177 168 189 203 198 197 206 209 200 191 178 158 151 159 163 161 164 174 176 165 157 167 194 183 178 190 198 192 201 224 226 224 239 250 247 253 257 252 251 257 262 262 276 307 316 318 313 311 318 329 328 323 325 328 329 331 333 332 331 331 330 327 322 318 314 313 313 312 310 308 300 286 275 268 260 248 241 243 247 239
173 175 177 193 184 184 199 204 187 185 195 200 203 207 204 180 111 118 142 164 167 156 153 158 166 169 166 169 185 191 181 189 207 207 196 211 238 238 225 238 243 237 241 248 249 251 264 278 279 286 314 326 320 314 315 316 315 316 319 319 319 319 321 324 329 330 330 330 326 321 318 316 313 312 310 308 308 308 301 286 272 261 248 241 241 240 223
174 163 182 206 185 178 192 196 183 176 183 195 200 195 190 180 157 150 152 159 156 152 155 162 167 169 169 180 204 206 189 189 209 213 200 214 244 241 222 229 237 239 241 246 254 263 271 279 293 309 323 325 320 321 326 323 317 316 314 313 316 318 315 315 320 326 327 326 322 318 318 318 314 309 308 308 308 310 307 296 281 265 251 243 240 235 219
158 145 183 215 202 179 179 186 190 189 178 163 167 181 192 199 186 160 147 152 160 159 156 160 183 191 180 169 194 214 202 191 201 208 196 201 219 230 232 234 236 237 237 242 259 275 278 281 295 302 307 319 326 327 328 328 326 322 315 311 313 314 310 308 312 317 319 320 319 318 317 315 310 306 308 311 312 312 309 300 287 274 261 248 241 233 214
170 194 212 200 185 171 172 186 203 205 190 177 177 180 188 197 187 162 150 158 163 152 141 149 198 203 189 177 198 216 211 201 206 212 210 215 223 229 236 240 241 244 249 258 268 276 280 287 293 290 300 323 330 325 323 324 324 318 313 310 309 308 306 305 305 304 307 313 318 318 314 310 310 313 314 311 310 311 310 302 290 281 274 262 246 235 218
178 220 228 213 200 185 178 187 203 205 194 188 186 177 177 192 188 170 162 169 170 169 181 191 189 188 195 199 207 212 200 188 205 218 223 229 230 227 231 240 247 255 266 270 271 272 276 283 291 299 310 322 321 317 317 316 313 310 308 307 306 305 305 304 301 300 303 309 315 316 313 312 314 316 313 309 312 317 316 309 299 291 284 274 253 236 223
176 183 189 201 220 206 192 191 203 202 192 191 194 186 185 191 181 163 162 177 187 192 198 197 188 193 205 207 206 203 192 194 216 228 229 229 227 230 240 251 263 274 282 285 284 282 282 286 296 306 310 313 312 311 309 306 305 305 304 303 302 302 301 299 299 299 300 304 310 315 314 313 314 314 312 314 323 331 328 323 323 320 307 293 252 212 208
Height
828 827 826 825 825 823 821 820 819 817 814 811 810 809 806 803 804 804 802 801 798 799 807 811 808 809 813 813 813 814 813 811 809 808 808 808 808 809 811 814 815 816 817 817 818 819 819 817 816 817 815 812 812 814 817 816 813 812 814 816 820 823 822 821 820 815 815 818 820 821 822 823 823 821 819 821 824 825 826 826 825 825 823 823 826 825 814
827 826 826 825 824 822 821 820 819 817 815 813 812 809 805 804 805 803 802 801 798 801 809 811 811 814 814 813 814 814 813 813 812 811 811 811 811 812 814 815 816 817 817 817 818 820 823 821 816 817 817 814 814 814 815 816 812 812 816 816 820 824 822 822 824 822 822 824 826 827 827 825 821 819 822 825 828 832 830 825 825 826 822 824 832 825 809
827 825 825 824 823 822 821 820 820 818 816 815 813 811 807 806 807 805 803 801 800 804 809 809 811 815 815 815 816 815 815 816 815 814 813 813 812 813 814 814 814 816 817 818 818 819 823 822 817 817 817 814 813 814 815 815 812 813 817 815 816 821 821 822 827 829 831 832 830 828 827 823 819 820 825 828 832 837 834 827 825 826 824 826 829 821 807
826 825 824 824 823 821 821 821 820 818 817 815 814 813 809 806 807 807 805 803 804 809 811 808 810 813 816 819 819 817 817 817 815 814 815 814 813 813 814 813 814 817 818 820 820 818 819 821 818 818 818 814 812 813 814 814 813 816 819 816 815 820 821 821 824 826 827 827 824 820 822 824 825 826 827 827 831 837 836 830 826 826 826 822 816 815 816
825 824 824 823 822 821 821 821 820 818 817 816 814 813 809 807 808 809 809 809 808 810 812 810 811 814 816 820 821 819 818 817 816 816 816 815 814 814 814 813 817 820 820 822 823 820 818 819 819 818 817 813 811 813 813 813 816 819 818 815 816 822 823 822 824 825 822 821 819 818 821 826 829 831 830 831 836 842 842 834 829 830 830 822 814 816 823
825 824 823 823 822 821 820 820 820 819 818 816 814 812 810 809 811 812 813 813 811 813 815 814 815 816 817 819 822 821 818 819 819 818 816 815 814 816 817 817 817 819 821 822 824 823 821 821 820 818 817 815 814 815 813 813 816 817 816 814 816 822 824 822 824 825 822 819 818 818 820 822 823 827 831 835 840 844 842 834 830 832 830 824 820 822 822
825 824 823 822 821 820 820 820 820 819 817 817 815 812 810 811 812 814 815 814 813 816 819 818 817 817 818 820 822 821 820 820 821 820 818 818 816 817 821 821 818 818 820 821 823 825 826 826 823 820 819 819 819 820 817 815 815 814 814 815 816 821 823 822 824 825 821 819 818 818 819 820 820 820 822 832 841 843 842 837 835 838 836 829 827 827 823
825 823 823 822 821 820 820 819 819 818 817 817 815 813 812 811 811 814 814 814 816 818 819 818 817 817 819 821 821 822 821 821 821 821 821 823 820 818 821 821 818 819 820 820 822 823 824 825 824 821 822 821 820 821 819 815 814 813 815 817 817 822 825 822 823 825 821 817 818 818 818 819 821 820 822 835 847 848 849 849 846 845 842 836 836 835 823
825 823 822 822 820 820 819 819 819 818 818 817 814 814 814 813 813 813 811 814 819 819 817 817 816 816 818 819 821 823 822 822 823 822 821 823 822 820 820 820 819 819 820 820 821 821 820 821 820 818 820 819 817 818 816 813 815 816 817 818 818 821 823 820 823 828 822 816 818 819 816 817 821 823 826 836 844 842 842 845 843 838 836 837 838 829 812
825 824 823 822 821 820 819 819 818 818 818 817 814 814 815 815 815 813 810 815 820 818 815 817 817 816 817 819 821 823 822 822 824 825 824 822 821 821 821 820 819 818 820 821 821 820 819 818 816 814 814 813 812 813 811 810 814 816 816 818 816 816 820 819 824 830 823 814 817 818 816 819 822 819 817 822 831 834 834 835 835 833 831 829 822 808 799
824 824 823 822 821 820 819 818 818 817 817 817 815 815 816 815 814 813 811 814 819 816 813 814 815 817 820 821 821 822 822 823 823 824 825 822 821 822 821 820 820 818 819 820 819 819 818 816 814 813 812 811 810 810 809 808 810 812 813 816 815 815 819 819 820 827 824 814 813 818 822 825 820 809 805 809 816 822 825 823 823 823 821 813 804 798 798
824 824 823 822 821 820 819 818 818 817 817 817 816 816 817 816 814 813 811 812 817 818 814 812 815 819 820 821 822 822 822 822 822 823 824 822 822 822 820 821 822 820 819 818 817 816 816 814 813 811 809 809 808 807 809 810 809 807 808 812 814 816 819 818 819 824 822 813 817 829 830 819 808 803 805 808 809 810 813 811 806 808 811 808 803 799 796
823 823 823 822 821 820 819 818 818 817 817 817 817 816 817 816 815 813 810 810 814 816 814 814 817 820 820 821 822 822 821 822 823 824 825 824 823 822 820 821 822 820 818 818 816 817 816 814 813 810 806 805 806 806 807 808 808 806 806 809 812 815 818 818 818 820 819 818 828 835 823 804 799 805 810 811 811 811 812 809 800 797 801 803 801 797 792
823 823 823 822 821 820 819 818 818 817 817 817 817 817 817 817 816 814 812 811 813 815 815 815 818 820 821 821 822 821 821 822 823 823 824 824 823 822 821 820 820 819 819 818 817 817 817 816 816 814 808 805 809 811 807 807 809 810 809 808 808 811 814 816 818 820 819 821 822 819 812 805 803 804 805 805 806 805 807 807 798 790 792 796 796 794 791
822 823 822 822 821 820 819 818 818 817 817 817 818 817 817 817 817 815 814 812 814 817 817 814 814 817 819 821 821 821 821 821 821 821 822 824 823 821 819 819 819 819 819 818 816 815 816 821 825 824 817 812 815 816 809 808 811 812 811 808 806 808 810 813 818 820 819 822 821 818 820 817 805 798 798 798 799 798 800 804 799 789 788 791 792 792 791
821 822 822 822 821 820 819 819 817 817 817 817 818 818 818 817 817 817 816 814 814 816 815 813 814 815 817 820 823 822 820 819 819 820 819 821 821 819 818 818 819 819 818 818 816 815 820 825 827 825 819 814 818 820 813 810 811 812 811 809 808 809 807 808 816 819 818 822 824 822 822 816 804 799 799 797 799 799 799 805 803 792 787 790 790 791 792
820 821 822 821 821 820 819 819 817 817 817 817 818 819 818 817 818 818 817 815 813 813 814 815 816 815 816 820 822 822 820 819 820 820 819 818 819 819 818 817 817 818 818 817 816 817 821 823 821 820 816 812 817 821 816 812 813 814 812 811 810 812 812 811 815 817 816 819 820 815 811 807 802 800 799 798 800 801 807 815 808 792 787 789 790 791 793
818 820 821 821 821 820 819 819 818 817 817 817 818 819 819 818 818 818 817 815 814 814 815 817 817 816 815 817 819 819 820 820 821 821 820 817 818 819 819 817 817 817 817 818 818 819 822 822 818 818 816 813 817 819 815 813 816 813 811 811 811 813 814 813 814 812 811 818 822 817 808 804 802 802 801 801 802 806 815 815 801 788 788 789 789 791 792
816 818 820 820 821 820 819 819 818 817 817 817 817 819 819 818 818 818 817 815 814 814 816 819 819 818 818 818 819 820 822 821 820 821 821 820 819 820 820 820 820 817 815 817 818 818 821 819 814 815 816 813 814 816 814 813 813 810 810 813 813 813 813 812 812 812 810 813 821 822 815 808 808 807 804 803 806 811 812 802 790 788 789 789 789 790 790
814 816 818 819 820 820 820 819 818 817 817 817 818 819 819 818 818 818 818 816 815 814 816 819 820 819 819 819 819 820 821 821 821 820 820 819 820 821 822 821 820 817 816 819 819 818 821 819 813 814 816 811 811 816 814 810 807 807 809 810 809 811 814 811 809 812 813 815 822 826 820 810 807 807 806 805 806 804 800 794 790 790 789 789 790 790 789
812 813 816 818 819 820 820 819 819 818 816 816 818 819 819 818 819 819 819 818 817 815 816 819 820 819 820 820 820 820 820 821 821 819 818 819 821 823 823 821 819 817 816 819 819 818 819 818 814 815 816 812 813 816 815 811 808 805 806 809 807 807 811 810 807 808 812 815 815 814 809 803 802 803 802 800 798 796 795 795 793 790 789 789 789 788 789
810 811 813 816 817 818 819 819 818 818 817 817 818 818 819 819 819 819 819 819 818 817 818 820 820 820 821 821 821 822 822 821 823 822 820 821 822 823 823 821 820 819 817 818 819 817 817 817 816 816 816 814 815 815 814 816 812 804 804 809 808 805 806 809 808 805 806 806 802 797 796 796 797 799 797 795 795 795 795 795 793 790 789 787 786 787 788
809 809 810 813 815 817 818 818 818 818 817 818 818 818 819 819 819 820 820 819 819 819 819 820 820 819 820 820 820 822 822 823 824 824 824 823 822 822 822 821 821 820 820 821 820 817 817 817 816 818 817 814 814 814 814 814 810 804 803 804 802 803 806 807 806 804 802 800 796 794 795 795 794 795 795 794 794 793 792 793 792 789 787 785 785 786 786
808 808 809 811 813 815 816 817 818 818 817 818 818 819 819 819 819 820 819 819 819 818 817 818 818 817 816 818 820 821 821 822 823 823 825 825 823 822 820 820 822 821 821 823 823 820 820 819 819 821 821 815 813 815 814 812 806 803 804 802 798 802 807 806 805 806 807 803 796 794 795 795 793 792 791 790 791 790 789 791 791 788 786 785 784 784 785
807 807 808 810 811 812 814 815 816 817 818 818 818 819 819 819 819 820 819 820 820 818 815 814 815 817 817 818 820 820 820 821 822 823 824 825 824 822 821 822 824 823 821 824 824 822 822 821 819 821 819 814 813 814 813 810 806 805 808 805 799 803 809 806 803 804 804 800 793 789 790 791 789 789 789 788 788 787 786 787 788 787 786 785 784 784 785
806 807 808 809 810 811 812 814 815 816 817 818 819 819 820 819 819 820 819 819 819 818 816 813 813 817 819 818 818 819 819 820 821 822 823 824 824 824 824 824 826 825 824 825 824 822 822 821 819 819 816 813 813 813 810 807 806 807 808 804 799 805 810 805 801 802 800 794 788 786 788 788 785 784 785 785 785 785 785 785 785 784 784 784 784 784 784
805 806 807 808 809 810 811 812 814 815 817 818 819 819 819 819 819 819 819 818 817 818 816 812 811 815 818 817 817 818 818 820 820 821 822 823 823 824 825 825 825 824 823 824 824 824 824 822 820 818 814 811 813 813 808 805 805 806 805 800 799 806 806 799 798 801 798 792 787 786 790 791 785 782 784 784 783 784 784 783 783 782 782 782 782 782 783
803 805 806 807 808 809 810 811 813 814 816 818 819 819 820 819 819 819 819 819 818 816 815 813 812 814 815 815 816 817 817 818 819 819 820 821 822 823 824 823 824 824 823 823 824 823 822 820 817 815 812 812 815 812 806 805 807 808 804 798 797 801 800 796 796 797 793 788 786 786 789 791 786 783 783 782 781 782 782 781 780 779 779 779 779 779 780
802 804 806 807 808 809 809 811 812 813 815 817 818 820 820 819 819 819 819 820 819 818 817 816 813 812 813 814 815 816 816 817 818 818 819 819 820 821 821 822 822 822 821 822 823 821 818 816 814 812 811 813 814 810 806 806 807 803 797 793 792 794 795 795 795 794 791 788 786 786 787 787 785 783 782 781 780 781 780 778 777 777 777 777 777 776 777
802 803 805 806 808 808 809 810 811 812 814 817 818 819 817 817 819 820 819 820 820 819 818 817 813 811 812 813 814 814 814 815 816 817 817 817 817 818 819 820 820 820 820 821 821 820 817 814 812 811 809 810 813 811 808 807 804 794 788 788 790 791 793 792 792 793 791 788 786 785 784 784 783 781 780 779 779 778 777 777 776 776 776 775 774 774 774
801 803 804 806 807 808 809 810 810 812 814 815 815 815 814 814 816 819 820 821 821 821 821 819 815 812 813 812 812 813 813 813 814 815 815 815 815 816 817 817 818 819 819 819 818 817 815 813 812 810 807 808 811 810 807 807 803 793 786 788 789 790 790 789 788 788 788 786 785 784 782 781 781 780 778 776 775 774 775 775 774 775 775 774 773 772 772
800 801 803 805 807 808 809 809 810 812 813 813 814 814 814 814 816 818 819 820 821 821 821 818 815 814 812 811 811 812 812 813 813 812 812 813 813 814 815 816 816 816 817 817 817 816 813 812 812 808 804 806 810 809 806 805 800 790 785 787 788 787 787 786 785 784 784 783 783 783 782 780 778 776 775 773 772 772 773 772 772 773 773 772 771 771 771
799 800 802 804 806 808 809 810 810 812 812 813 813 814 815 816 817 817 819 821 821 821 820 819 818 816 812 808 808 810 811 810 809 808 809 810 810 812 813 814 814 815 817 817 816 812 809 809 810 808 803 803 807 808 804 797 791 786 784 784 784 783 782 782 781 781 780 779 779 780 781 778 775 773 771 770 770 771 771 770 770 770 770 770 769 769 769
798 799 802 804 806 808 809 809 810 812 812 812 813 814 815 815 816 817 819 820 820 821 821 819 818 815 809 806 806 809 809 807 805 804 805 808 809 810 810 812 814 815 815 813 812 809 807 807 807 806 801 800 804 807 800 790 784 783 782 780 779 779 779 779 778 778 777 776 775 774 774 773 771 770 769 768 768 769 769 768 768 768 769 768 767 766 767
797 799 801 803 805 807 809 810 811 812 812 812 812 813 814 815 816 818 819 819 820 821 820 819 816 812 807 803 804 807 808 806 804 803 804 806 808 807 806 809 813 812 810 808 808 808 805 804 803 802 799 798 802 802 796 787 782 781 779 776 776 778 778 778 778 776 774 773 772 771 770 769 769 768 767 766 765 766 765 764 764 766 767 766 765 764 765
796 798 800 803 805 807 808 810 811 811 811 811 812 813 815 816 816 818 818 819 820 819 817 816 815 810 805 803 803 805 807 806 803 803 804 805 806 806 805 807 808 806 805 806 807 803 799 798 799 799 797 795 795 793 787 783 780 778 776 775 776 776 777 778 777 775 772 771 770 768 767 766 765 764 764 763 762 762 762 761 761 763 764 764 763 762 762
795 798 800 802 805 807 809 809 810 810 811 811 812 813 815 815 817 819 819 819 820 819 817 816 814 809 805 805 805 805 805 803 802 803 803 803 803 804 804 804 804 803 804 804 801 797 794 795 798 798 794 789 786 782 780 779 779 777 775 775 775 775 775 775 775 774 772 769 767 764 762 762 762 761 761 761 761 760 760 759 759 760 761 761 760 761 761
795 797 799 801 803 806 807 808 808 809 811 812 813 815 816 816 817 818 818 818 820 819 817 816 813 808 806 808 807 804 803 802 802 802 802 801 801 803 803 802 802 803 802 797 791 791 794 796 797 796 790 784 780 779 777 777 776 775 774 775 775 775 775 774 774 774 772 770 768 765 763 762 762 761 760 760 759 759 758 757 757 758 758 758 758 758 759
794 796 797 799 801 803 804 805 806 809 811 812 813 814 815 816 817 817 816 817 818 817 816 814 810 805 805 807 805 803 803 804 803 802 801 801 801 801 800 800 800 802 801 794 788 790 794 794 792 791 787 781 779 777 775 773 773 773 774 774 774 774 774 773 773 773 771 770 768 766 764 764 763 761 759 759 758 758 757 756 756 756 757 757 756 756 757
793 794 795 797 799 801 802 804 807 809 811 812 813 813 815 816 815 813 814 815 815 812 810 809 805 803 805 805 802 802 804 805 803 800 800 800 800 800 800 798 798 801 801 794 788 790 793 791 788 786 782 777 773 771 770 771 772 772 773 772 772 772 772 772 771 771 769 768 766 764 764 763 761 760 760 759 759 758 757 756 755 755 755 755 755 755 755
790 792 793 795 797 800 802 804 807 809 810 811 813 814 815 815 812 810 811 812 809 805 803 804 803 803 805 805 802 801 804 805 804 802 802 801 800 802 801 798 798 802 800 791 786 789 792 791 789 784 778 772 769 769 769 770 771 770 770 771 771 771 772 771 769 768 768 767 765 764 763 762 760 760 759 758 758 757 756 755 755 755 754 754 754 753 753
789 790 791 794 797 800 802 805 807 808 810 812 812 811 810 811 810 810 809 805 800 797 798 800 800 799 800 802 801 800 802 805 806 805 804 802 802 802 799 797 800 804 798 788 786 789 791 790 789 782 772 768 768 769 769 770 770 770 770 770 770 771 771 769 768 768 767 766 765 763 762 761 760 759 758 757 756 756 755 755 754 754 753 752 752 751 751
789 790 792 795 798 800 802 804 805 806 809 810 810 810 809 808 806 804 801 798 794 793 794 796 797 797 799 801 800 800 803 806 805 803 801 801 801 801 800 801 802 800 792 786 788 790 790 788 785 776 768 766 768 769 770 770 770 770 770 769 769 770 769 768 767 766 766 765 764 763 762 760 759 758 757 756 755 753 753 753 752 752 752 751 750 749 749
789 790 792 795 796 798 801 802 802 803 804 803 801 802 803 803 799 795 792 790 789 788 789 790 792 794 796 797 798 800 803 804 803 801 800 799 799 801 803 802 797 791 788 789 789 787 784 781 775 770 768 768 769 770 771 771 770 770 769 769 768 768 768 767 766 765 764 763 763 762 760 759 757 756 755 754 753 752 751 750 749 749 749 749 748 747 747
787 789 792 795 796 797 797 797 797 797 795 792 789 787 786 786 786 785 783 781 780 781 783 785 786 787 789 793 795 796 797 799 801 801 798 798 799 800 798 795 790 787 788 789 787 784 782 776 770 769 770 769 769 770 771 770 769 770 769 769 768 767 766 766 765 764 763 762 761 760 759 758 756 754 753 751 751 750 748 747 746 745 746 746 745 744 744
785 786 788 790 792 790 789 790 793 792 786 781 780 779 775 773 774 775 776 777 777 778 780 782 782 783 787 791 793 793 793 795 798 797 794 797 800 796 790 790 792 793 793 791 788 784 778 772 767 768 770 770 769 769 769 768 768 769 769 768 768 767 765 765 764 763 762 761 760 758 757 756 755 753 751 749 748 747 745 744 743 743 742 741 741 741 741
783 784 784 785 786 785 783 783 783 782 777 774 774 774 772 772 773 775 776 777 776 776 779 781 782 783 785 788 791 791 790 792 794 793 792 795 796 792 789 792 795 793 791 791 787 779 772 768 766 768 769 770 769 769 768 767 768 768 768 767 767 766 765 764 763 762 761 760 758 757 756 755 753 752 750 748 746 745 743 741 741 740 739 739 738 739 739
779 781 783 782 780 779 779 777 774 773 773 773 772 772 773 773 774 775 777 777 776 777 780 782 783 784 786 788 789 789 789 792 795 793 791 793 797 796 796 797 795 788 783 781 777 771 768 768 768 769 769 770 769 768 767 768 768 767 767 767 766 764 764 763 762 761 761 759 757 755 754 753 752 750 748 747 745 743 741 740 739 738 737 736 736 736 737
775 778 779 777 773 772 773 773 771 770 771 772 773 773 774 774 772 773 777 778 778 778 779 781 782 784 785 787 788 789 789 792 793 791 791 796 799 796 794 794 791 784 777 773 770 768 767 766 767 769 769 769 768 768 767 767 767 767 766 765 764 763 763 762 761 761 760 758 756 754 753 751 750 748 746 745 743 741 739 738 737 736 735 734 733 733 734
775 776 775 774 771 770 770 771 770 768 769 771 772 773 773 772 771 773 777 778 778 780 782 784 784 784 784 786 790 790 788 787 789 790 792 793 791 788 788 788 783 775 769 767 767 767 765 765 766 768 768 767 768 768 767 766 766 766 765 764 763 762 761 760 759 759 758 756 755 753 751 750 748 746 745 744 742 739 737 736 735 734 733 732 731 731 731
774 774 772 770 768 766 766 768 768 766 767 769 771 771 770 770 770 773 776 778 779 781 782 781 781 783 786 789 791 789 785 784 786 788 787 783 780 781 784 782 773 765 764 765 765 764 764 764 765 766 766 767 768 767 766 766 766 765 763 763 761 760 759 758 757 756 755 754 753 751 750 748 747 746 745 743 741 738 736 734 733 733 732 731 730 730 730
772 771 769 768 766 763 762 763 764 764 765 767 768 768 769 769 769 772 776 777 778 778 778 777 779 784 787 787 785 784 784 786 786 785 781 776 773 774 775 771 765 762 763 763 763 762 763 763 764 765 766 767 767 766 765 765 764 763 762 761 760 758 757 756 755 754 753 752 750 749 748 747 746 745 744 742 740 738 736 735 733 733 732 730 729 729 729